This demonstration page uses our WeatherBlox Daily Observations layout. Learn more.

Left ArrowRight Arrow

Hourly Observations for May 20, 2022

Temp ( °F °C ) Dew Point ( °F °C ) Humidity (%) Winds ( mph kmh ) Pressure ( in mb ) Visibility ( mi km ) Precip ( " mm )
12:53 am 00:53 Mostly Cloudy 77 25 65 18.3 66 66 S 21 33 29.26 991 10 16 0.00 0.00
1:53 am 01:53 Mostly Cloudy 76 24.4 64 17.8 67 67 S 20 31 29.23 990 10 16 0.00 0.00
2:53 am 02:53 Mostly Cloudy 75 23.9 63 17.2 66 66 S 18 30 29.21 989 10 16 0.00 0.00
3:53 am 03:53 Partly Cloudy 77 25 62 16.7 60 60 S 23 37 29.20 989 10 16 0.00 0.00
4:53 am 04:53 Partly Cloudy 76 24.4 62 16.7 62 62 SSW 15 24 29.23 990 10 16 0.00 0.00
5:53 am 05:53 Partly Cloudy 73 22.8 62 16.7 69 69 SSW 12 19 29.24 990 10 16 0.00 0.00
6:41 am 06:41 Cloudy 62 16.7 52 11.1 70 70 NNW 23 37 29.34 994 10 16 0.00 0.00
6:53 am 06:53 Cloudy 62 16.7 51 10.6 67 67 NNW 24 39 29.33 993 10 16 0.00 0.00
7:53 am 07:53 Cloudy 60 15.6 46 7.8 60 60 N 21 33 29.39 995 10 16 0.00 0.00
8:53 am 08:53 Cloudy 62 16.7 47 8.3 58 58 N 15 24 29.45 997 10 16 0.00 0.00
9:53 am 09:53 Cloudy 63 17.2 47 8.3 56 56 N 22 35 29.48 998 10 16 0.00 0.00
10:53 am 10:53 Cloudy 65 18.3 46 7.8 51 51 N 24 39 29.51 999 10 16 0.00 0.00
11:53 am 11:53 Cloudy 65 18.3 45 7.2 49 49 N 20 31 29.56 1001 10 16 0.00 0.00
12:53 pm 12:53 Cloudy 67 19.4 45 7.2 45 45 NNE 21 33 29.58 1002 10 16 0.00 0.00
1:53 pm 13:53 Mostly Cloudy 69 20.6 47 8.3 45 45 NNE 22 35 29.58 1002 10 16 0.00 0.00
2:53 pm 14:53 Mostly Cloudy 73 22.8 50 10 44 44 NNE 17 28 29.59 1002 10 16 0.00 0.00
3:53 pm 15:53 Partly Cloudy 73 22.8 49 9.4 43 43 NNE 13 20 29.60 1002 10 16 0.00 0.00
4:53 pm 16:53 Partly Cloudy 74 23.3 49 9.4 41 41 N 15 24 29.62 1003 10 16 0.00 0.00
5:53 pm 17:53 Partly Cloudy 72 22.2 47 8.3 41 41 NNE 15 24 29.64 1004 10 16 0.00 0.00
6:53 pm 18:53 Mostly Sunny 71 21.7 46 7.8 41 41 NNE 17 28 29.68 1005 10 16 0.00 0.00
7:53 pm 19:53 Partly Cloudy 69 20.6 44 6.7 41 41 NE 12 19 29.72 1006 10 16 0.00 0.00
8:53 pm 20:53 Partly Cloudy 67 19.4 43 6.1 42 42 NNE 9 15 29.75 1007 10 16 0.00 0.00
9:53 pm 21:53 Mostly Clear 65 18.3 44 6.7 47 47 NNE 9 15 29.78 1008 10 16 0.00 0.00
10:53 pm 22:53 Clear 62 16.7 44 6.7 52 52 NE 7 11 29.81 1009 10 16 0.00 0.00
11:53 pm 23:53 Mostly Clear 62 16.7 40 4.4 44 44 N 17 28 29.84 1011 10 16 0.00 0.00

Powered by AerisWeather